• In Netherlands
  • List of Countries
  • For 7 days
  • Water Temperature
  • Satellite Maps
  • Weather Map
  • Weather Widgets
  • user-avatar
    Login

    Hourly Weather Dobrich

    Today, 23 July, Sunday

    Time Temperature Precipitation Wind Pressure Humidity
    00:00 +24°C° 0 mm 2 mps 739 mmHg 48%
    01:00 +23°C° 0 mm 2 mps 739 mmHg 48%
    02:00 +23°C° 0 mm 2 mps 738 mmHg 48%
    03:00 +23°C° 0 mm 2 mps 739 mmHg 49%
    04:00 +23°C° 0 mm 2 mps 739 mmHg 50%
    05:00 +21°C° 0 mm 2 mps 739 mmHg 51%
    06:00 +25°C° 0.1 mm 1 mps 739 mmHg 49%
    07:00 +27°C° 0.1 mm 1 mps 739 mmHg 47%
    08:00 +29°C° 0.1 mm 1 mps 739 mmHg 44%
    09:00 +30°C° 0 mm 1 mps 739 mmHg 41%
    10:00 +32°C° 0 mm 1 mps 739 mmHg 37%
    11:00 +35°C° 0 mm 2 mps 739 mmHg 33%
    12:00 +35°C° 0 mm 2 mps 739 mmHg 32%
    13:00 +36°C° 0 mm 3 mps 739 mmHg 31%
    14:00 +35°C° 0 mm 3 mps 738 mmHg 34%
    15:00 +35°C° 0.2 mm 3 mps 738 mmHg 35%
    16:00 +35°C° 0.2 mm 3 mps 738 mmHg 36%
    17:00 +34°C° 0.2 mm 3 mps 738 mmHg 37%
    18:00 +31°C° 0.4 mm 3 mps 737 mmHg 45%
    19:00 +28°C° 0.4 mm 3 mps 737 mmHg 53%
    20:00 +26°C° 0.4 mm 2 mps 737 mmHg 61%
    21:00 +25°C° 0.5 mm 2 mps 737 mmHg 64%
    22:00 +24°C° 0.5 mm 2 mps 737 mmHg 67%
    23:00 +23°C° 0.5 mm 2 mps 737 mmHg 70%

    Tomorrow, 24 July, Monday

    Time Temperature Precipitation Wind Pressure Humidity
    00:00 +23°C° 0.2 mm 2 mps 737 mmHg 70%
    01:00 +23°C° 0.2 mm 2 mps 737 mmHg 70%
    02:00 +23°C° 0.2 mm 2 mps 737 mmHg 70%
    03:00 +21°C° 0 mm 2 mps 736 mmHg 70%
    04:00 +21°C° 0 mm 2 mps 736 mmHg 70%
    05:00 +22°C° 0 mm 1 mps 736 mmHg 70%
    06:00 +24°C° 0 mm 2 mps 736 mmHg 65%
    07:00 +26°C° 0 mm 2 mps 736 mmHg 59%
    08:00 +28°C° 0 mm 2 mps 736 mmHg 54%
    09:00 +30°C° 0 mm 2 mps 736 mmHg 49%
    10:00 +31°C° 0 mm 3 mps 736 mmHg 43%
    11:00 +34°C° 0 mm 3 mps 736 mmHg 38%
    12:00 +34°C° 0 mm 3 mps 736 mmHg 37%
    13:00 +35°C° 0 mm 4 mps 736 mmHg 35%
    14:00 +35°C° 0 mm 4 mps 735 mmHg 34%
    15:00 +34°C° 0 mm 4 mps 735 mmHg 36%
    16:00 +33°C° 0 mm 5 mps 734 mmHg 39%
    17:00 +32°C° 0 mm 5 mps 734 mmHg 41%
    18:00 +29°C° 0.1 mm 5 mps 734 mmHg 48%
    19:00 +27°C° 0.1 mm 4 mps 734 mmHg 54%
    20:00 +25°C° 0.1 mm 4 mps 734 mmHg 60%
    21:00 +23°C° 0 mm 4 mps 733 mmHg 62%
    22:00 +23°C° 0 mm 4 mps 733 mmHg 64%
    23:00 +22°C° 0 mm 4 mps 733 mmHg 66%

    Day after tomorrow, 25 July, Tuesday

    Time Temperature Precipitation Wind Pressure Humidity
    00:00 +22°C° 0 mm 4 mps 733 mmHg 67%
    01:00 +22°C° 0 mm 4 mps 733 mmHg 68%
    02:00 +22°C° 0 mm 4 mps 732 mmHg 69%
    03:00 +22°C° 0 mm 4 mps 732 mmHg 69%
    04:00 +22°C° 0 mm 4 mps 732 mmHg 69%
    05:00 +22°C° 0 mm 4 mps 732 mmHg 68%
    06:00 +23°C° 0 mm 4 mps 731 mmHg 62%
    07:00 +26°C° 0 mm 5 mps 731 mmHg 56%
    08:00 +28°C° 0 mm 6 mps 731 mmHg 50%
    09:00 +29°C° 0 mm 6 mps 731 mmHg 46%
    10:00 +32°C° 0 mm 7 mps 731 mmHg 42%
    11:00 +33°C° 0 mm 7 mps 731 mmHg 38%
    12:00 +33°C° 0 mm 7 mps 730 mmHg 38%
    13:00 +34°C° 0 mm 7 mps 730 mmHg 37%
    14:00 +34°C° 0 mm 7 mps 730 mmHg 36%
    15:00 +33°C° 0.1 mm 7 mps 729 mmHg 40%
    16:00 +32°C° 0.1 mm 7 mps 728 mmHg 43%
    17:00 +30°C° 0.1 mm 7 mps 728 mmHg 46%
    18:00 +28°C° 0.3 mm 7 mps 728 mmHg 54%
    19:00 +26°C° 0.3 mm 6 mps 728 mmHg 63%
    20:00 +23°C° 0.3 mm 5 mps 728 mmHg 71%
    21:00 +23°C° 0.3 mm 4 mps 729 mmHg 74%
    22:00 +22°C° 0.3 mm 3 mps 729 mmHg 78%
    23:00 +23°C° 0.3 mm 2 mps 729 mmHg 82%

    26 July, Wednesday

    Time Temperature Precipitation Wind Pressure Humidity
    00:00 +21°C° 0 mm 2 mps 729 mmHg 83%
    01:00 +21°C° 0 mm 3 mps 729 mmHg 84%
    02:00 +20°C° 0 mm 4 mps 729 mmHg 86%
    03:00 +20°C° 0.1 mm 4 mps 729 mmHg 85%
    04:00 +19°C° 0.1 mm 5 mps 729 mmHg 85%
    05:00 +19°C° 0.1 mm 5 mps 729 mmHg 84%
    06:00 +20°C° 0 mm 5 mps 730 mmHg 78%
    07:00 +21°C° 0 mm 5 mps 730 mmHg 72%
    08:00 +23°C° 0 mm 6 mps 731 mmHg 65%
    09:00 +26°C° 0 mm 5 mps 731 mmHg 58%
    10:00 +27°C° 0 mm 5 mps 731 mmHg 50%
    11:00 +29°C° 0 mm 4 mps 731 mmHg 43%
    12:00 +30°C° 0 mm 4 mps 731 mmHg 40%
    13:00 +31°C° 0 mm 3 mps 731 mmHg 37%
    14:00 +33°C° 0 mm 3 mps 731 mmHg 34%
    15:00 +33°C° 0 mm 3 mps 731 mmHg 35%
    16:00 +33°C° 0 mm 3 mps 731 mmHg 36%
    17:00 +31°C° 0 mm 3 mps 730 mmHg 37%
    18:00 +29°C° 0 mm 3 mps 731 mmHg 43%
    19:00 +27°C° 0 mm 2 mps 731 mmHg 49%
    20:00 +25°C° 0 mm 2 mps 731 mmHg 55%
    21:00 +24°C° 0 mm 1 mps 731 mmHg 56%
    22:00 +24°C° 0 mm 1 mps 731 mmHg 58%
    23:00 +23°C° 0 mm 1 mps 731 mmHg 59%

    27 July, Thursday

    Time Temperature Precipitation Wind Pressure Humidity
    00:00 +23°C° 0 mm 1 mps 731 mmHg 59%
    01:00 +22°C° 0 mm 1 mps 731 mmHg 59%
    02:00 +22°C° 0 mm 1 mps 732 mmHg 59%
    03:00 +21°C° 0 mm 2 mps 732 mmHg 61%
    04:00 +20°C° 0 mm 2 mps 732 mmHg 63%
    05:00 +20°C° 0 mm 2 mps 732 mmHg 65%
    06:00 +22°C° 0 mm 3 mps 732 mmHg 65%
    07:00 +24°C° 0 mm 3 mps 732 mmHg 64%
    08:00 +26°C° 0 mm 4 mps 733 mmHg 63%
    09:00 +28°C° 0 mm 4 mps 733 mmHg 57%
    10:00 +30°C° 0 mm 4 mps 733 mmHg 50%
    11:00 +32°C° 0 mm 4 mps 733 mmHg 44%
    12:00 +33°C° 0 mm 4 mps 733 mmHg 43%
    13:00 +33°C° 0 mm 4 mps 732 mmHg 43%
    14:00 +33°C° 0 mm 5 mps 732 mmHg 42%
    15:00 +32°C° 0.2 mm 5 mps 732 mmHg 45%
    16:00 +32°C° 0.2 mm 5 mps 731 mmHg 47%
    17:00 +30°C° 0.2 mm 5 mps 731 mmHg 50%
    18:00 +28°C° 0.1 mm 4 mps 731 mmHg 59%
    19:00 +26°C° 0.1 mm 3 mps 731 mmHg 68%
    20:00 +24°C° 0.1 mm 2 mps 731 mmHg 77%
    21:00 +22°C° 0 mm 3 mps 731 mmHg 80%
    22:00 +22°C° 0 mm 3 mps 732 mmHg 83%
    23:00 +22°C° 0 mm 3 mps 732 mmHg 87%

    28 July, Friday

    Time Temperature Precipitation Wind Pressure Humidity
    00:00 +21°C° 0.5 mm 3 mps 732 mmHg 89%
    01:00 +21°C° 0.5 mm 3 mps 732 mmHg 91%
    02:00 +20°C° 0.5 mm 2 mps 732 mmHg 94%
    03:00 +20°C° 0.2 mm 3 mps 732 mmHg 94%
    04:00 +20°C° 0.2 mm 3 mps 732 mmHg 94%
    05:00 +19°C° 0.2 mm 3 mps 732 mmHg 95%
    06:00 +20°C° 0.5 mm 4 mps 732 mmHg 91%
    07:00 +21°C° 0.5 mm 4 mps 733 mmHg 87%
    08:00 +22°C° 0.5 mm 4 mps 733 mmHg 84%
    09:00 +22°C° 0.1 mm 5 mps 733 mmHg 81%
    10:00 +23°C° 0.1 mm 5 mps 734 mmHg 78%
    11:00 +23°C° 0.1 mm 5 mps 734 mmHg 75%
    12:00 +26°C° 0 mm 5 mps 734 mmHg 70%
    13:00 +27°C° 0 mm 5 mps 734 mmHg 66%
    14:00 +28°C° 0 mm 5 mps 735 mmHg 61%
    15:00 +28°C° 0 mm 5 mps 734 mmHg 60%
    16:00 +28°C° 0 mm 5 mps 734 mmHg 60%
    17:00 +28°C° 0 mm 5 mps 734 mmHg 59%
    18:00 +26°C° 0.9 mm 5 mps 735 mmHg 66%
    19:00 +25°C° 0.9 mm 4 mps 735 mmHg 72%
    20:00 +22°C° 0.9 mm 4 mps 735 mmHg 79%
    21:00 +22°C° 0.4 mm 4 mps 735 mmHg 80%
    22:00 +21°C° 0.4 mm 4 mps 735 mmHg 82%
    23:00 +20°C° 0.4 mm 4 mps 735 mmHg 84%
    Show more